Weather History for Akron Canton, OH

Change the Weather History Date:

Tuesday, December 25, 2012

  Actual Average Record
Temperature  
Mean Temperature 33 °F 28 °F  
Max Temperature 35 °F 34 °F 64 °F (1982)
Min Temperature 31 °F 21 °F -14 °F (1983)
Degree Days  
Heating Degree Days 32 37  
Month to date heating degree days 626 846  
Since 1 July heating degree days 1920 2105  
Cooling Degree Days 0 0  
Month to date cooling degree days 0 0  
Year to date cooling degree days 1046 652  
Moisture  
Dew Point 27 °F    
Average Humidity 81    
Maximum Humidity 92    
Minimum Humidity 69    
Precipitation  
Precipitation 0.00 in 0.09 in 0.95 in (1964)
Month to date precipitation 3.17 2.32  
Year to date precipitation 36.89 39.10  
Snow  
Snow 0.00 in 0.40 in - ()
Month to date snowfall 2.7 8.0  
Since 1 July snowfall 3.2 11.4  
Snow Depth 0.00 in    
Sea Level Pressure  
Sea Level Pressure 30.13 in    
Wind  
Wind Speed 7 mph (North)    
Max Wind Speed 15 mph    
Max Gust Speed 20 mph    
Visibility 7 miles    
Events Fog    
T = Trace of Precipitation, MM = Missing Value Source: NWS Daily Summary

Daily Weather History Graph

Daily Weather History Graph

Search for Another Location

Airport:

Trip Planner

Search our weather history database for the weather conditions in past years. The results will help you decide how hot, cold, wet, or windy it might be!

Date:

Astronomy

Dec. 25, 2012 Rise Set
Actual Time 7:48 AM EST 5:03 PM EST
Civil Twilight 7:17 AM EST 5:34 PM EST
Nautical Twilight 6:43 AM EST 6:09 PM EST
Astronomical Twilight 6:09 AM EST 6:42 PM EST
Moon 3:10 PM EST (12/25) 5:19 AM EST (12/25)
Length of Visible Light 10h 16m
Length of Day
9h 14m
Waxing Gibbous, 93% of the Moon is Illuminated
Dec 25
Waxing Gibbous
Dec 28
Full
Jan 4
Last Quarter
Jan 11
New
Jan 18
First Quarter

Hourly Weather History & Observations

Time (EST) Temp. Windchill Dew Point Humidity Pressure Visibility Wind Dir Wind Speed Gust Speed Precip Events Conditions
12:51 AM 32.0 °F 24.8 °F 30.9 °F 96% 29.94 in 0.5 mi WNW 8.1 mph - N/A Fog Fog
1:51 AM 32.0 °F 23.6 °F 30.9 °F 96% 29.97 in 0.5 mi WNW 10.4 mph - N/A Fog Fog
2:51 AM 33.1 °F 27.7 °F 30.9 °F 92% 29.99 in 0.5 mi NW 5.8 mph - N/A Fog Fog
3:51 AM 32.0 °F 24.8 °F 30.9 °F 96% 30.01 in 0.2 mi NNW 8.1 mph - N/A Fog Fog
4:51 AM 32.0 °F 25.6 °F 30.9 °F 96% 30.05 in 0.2 mi North 6.9 mph - N/A Fog Fog
4:58 AM 32.0 °F 23.6 °F 30.2 °F 93% 30.02 in 0.5 mi NNW 10.4 mph - N/A   Overcast
5:07 AM 32.0 °F 23.0 °F 30.2 °F 93% 30.01 in 2.0 mi NNW 11.5 mph - N/A   Overcast
5:31 AM 32.0 °F 24.2 °F 30.2 °F 93% 30.04 in 2.0 mi North 9.2 mph - N/A   Overcast
5:37 AM 32.0 °F 24.8 °F 30.2 °F 93% 30.04 in 6.0 mi NNW 8.1 mph - N/A   Overcast
5:40 AM 32.0 °F 25.6 °F 28.4 °F 87% 30.04 in 6.0 mi NNW 6.9 mph - N/A   Overcast
5:51 AM 30.9 °F 21.7 °F 28.9 °F 92% 30.09 in 7.0 mi North 11.5 mph - N/A   Overcast
6:04 AM 30.2 °F 22.6 °F 28.4 °F 93% 30.05 in 7.0 mi North 8.1 mph - N/A   Overcast
6:22 AM 30.2 °F 23.4 °F 28.4 °F 93% 30.07 in 7.0 mi NNW 6.9 mph - N/A   Overcast
6:51 AM 30.9 °F 21.7 °F 27.0 °F 85% 30.12 in 7.0 mi North 11.5 mph - N/A   Overcast
7:51 AM 30.9 °F 24.3 °F 26.1 °F 82% 30.14 in 7.0 mi North 6.9 mph - N/A   Overcast
8:51 AM 30.9 °F 24.3 °F 26.1 °F 82% 30.17 in 10.0 mi NNW 6.9 mph - N/A   Overcast
9:51 AM 32.0 °F 25.6 °F 24.1 °F 73% 30.18 in 10.0 mi NNE 6.9 mph - N/A   Overcast
10:51 AM 32.0 °F 26.4 °F 25.0 °F 75% 30.20 in 10.0 mi North 5.8 mph - N/A   Overcast
11:51 AM 33.1 °F 28.7 °F 25.0 °F 72% 30.21 in 10.0 mi NE 4.6 mph - N/A   Overcast
12:51 PM 33.1 °F 26.1 °F 24.1 °F 70% 30.20 in 10.0 mi ENE 8.1 mph - N/A   Overcast
1:51 PM 34.0 °F - 24.1 °F 67% 30.18 in 10.0 mi Calm Calm - N/A   Overcast
2:12 PM 33.8 °F 29.6 °F 24.8 °F 70% 30.14 in 10.0 mi NE 4.6 mph - N/A   Overcast
2:51 PM 33.8 °F 27.0 °F 24.8 °F 70% 30.15 in 10.0 mi NNE 8.1 mph - N/A   Overcast
3:51 PM 34.0 °F 28.8 °F 26.1 °F 73% 30.23 in 10.0 mi NNE 5.8 mph - N/A   Overcast
4:51 PM 34.0 °F 31.0 °F 26.1 °F 73% 30.24 in 8.0 mi NE 3.5 mph - N/A   Overcast
5:51 PM 34.0 °F 29.8 °F 27.0 °F 75% 30.22 in 8.0 mi NE 4.6 mph - N/A   Overcast
6:51 PM 33.1 °F 26.1 °F 27.0 °F 78% 30.23 in 8.0 mi NE 8.1 mph - N/A   Overcast
7:51 PM 33.1 °F 26.1 °F 28.0 °F 82% 30.24 in 8.0 mi NE 8.1 mph - N/A   Overcast
8:51 PM 33.1 °F 25.5 °F 27.0 °F 78% 30.23 in 9.0 mi NE 9.2 mph - N/A   Overcast
9:51 PM 32.0 °F 24.8 °F 25.0 °F 75% 30.22 in 10.0 mi ENE 8.1 mph - N/A   Overcast
10:51 PM 32.0 °F 23.0 °F 24.1 °F 73% 30.23 in 10.0 mi ENE 11.5 mph - N/A   Overcast
11:51 PM 32.0 °F 23.6 °F 23.0 °F 69% 30.21 in 10.0 mi ENE 10.4 mph - N/A   Overcast